Estación Meteorológica Peña el Pijo (Robertgarden) [ 12/16/19 01:19:23 CET ]

Fecha Hora Presion(HPa) Temp (°C) Humedad % Rocio (°C) Viento ( m/s) Direccion Lluvia 1Hora(mm) Lluvia 24H(mm) LLuvia Total(mm)
2019-Dec-04 01:08:55 999.800 - - - - S     39.88
2019-Dec-04 02:09:14 999.000 - - - - S     39.88
2019-Dec-04 03:09:27 998.400 - - - - S     39.88
2019-Dec-04 04:09:35 997.900 - - - - S     39.88
2019-Dec-04 05:09:34 997.100 - - - - S     39.88
2019-Dec-04 06:10:43 996.100 - - - - S     39.88
2019-Dec-04 07:09:29 996.000 - - - - S     39.88
2019-Dec-04 08:09:21 996.200 - - - - S     39.88
2019-Dec-04 09:09:22 996.100 - - - - S     39.88
2019-Dec-04 10:09:05 996.500 - - - - S     39.88
2019-Dec-04 11:08:53 996.500 - - - - S     39.88
2019-Dec-04 12:08:46 996.300 - - - - S     39.88
2019-Dec-04 13:08:44 995.900 - - - - S     39.88
2019-Dec-04 14:09:09 995.200 - - - - S     39.88
2019-Dec-04 15:09:13 995.800 - - - - S     39.88
2019-Dec-04 16:09:17 995.900 - - - - S     39.88
2019-Dec-04 17:09:33 996.300 - - - - S     39.88
2019-Dec-04 18:08:55 996.700 - - - - S     39.88
2019-Dec-04 19:08:53 997.000 - - - - S     39.88
2019-Dec-04 20:09:06 997.600 - - - - S     39.88
2019-Dec-04 21:09:07 998.200 - - - - S     39.88
2019-Dec-04 22:08:47 998.500 - - - - S     39.88
2019-Dec-04 23:08:55 998.700 - - - - S     39.88

Temperatura Máxima:    Temperatura Mínima:
Presión Máxima:999.800 Hpa    Presión Mínima:995.200 Hpa


Volver